Location: Unspecified
(0.0000°N, 0.0000°E)
Time: 03:41:01
(UTC+02:00)

BREEZE-M DEB (TANK) - Visible Passes

Search period start: 06 May 2016 00:00
Search period end: 16 May 2016 00:00
Orbit: 350 x 16327 km, 49.4° (Epoch: 05 May)

Date Brightness Start Highest point End Pass type
(mag) Time Alt. Az. Time Alt. Az. Time Alt. Az.
06 May 8.7 04:40:19 10° W 05:39:15 16° WNW 07:35:56 10° N visible
06 May 8.3 23:31:05 10° SSW 00:40:53 85° E 03:04:04 10° NNE visible
08 May 8.4 00:14:25 10° SW 01:26:11 79° WNW 03:49:16 10° NNE visible
08 May 7.7 19:55:25 10° SSE 20:53:02 19° E 22:26:12 10° ENE visible
09 May 8.6 00:58:50 10° SW 02:12:41 63° WNW 04:33:40 10° NNE visible
09 May 7.8 20:32:25 10° S 21:33:42 32° E 23:34:01 10° NE visible
10 May 8.7 01:44:56 10° SW 03:00:01 48° WNW 05:17:32 10° NNE visible
10 May 7.9 21:12:39 10° S 22:13:51 46° E 00:28:49 10° NE visible
11 May 9.0 02:34:11 10° WSW 03:48:15 34° WNW 06:00:57 10° N visible
11 May 8.0 21:54:00 10° SSW 22:55:15 62° E 01:18:43 10° NE visible
12 May 8.8 03:31:06 10° WSW 04:38:27 21° WNW 06:43:52 10° N visible
12 May 8.2 22:36:05 10° SSW 23:38:32 78° ESE 02:06:08 10° NNE visible
13 May 8.7 06:50:56 10° NW 07:14:21 11° NNW 07:25:01 10° N visible
13 May 8.3 23:18:51 10° SSW 00:23:42 86° WNW 02:52:04 10° NNE visible
14 May 7.7 19:08:21 10° SE 19:47:03 13° E 20:54:45 10° ENE visible
15 May 8.5 00:02:31 10° SW 01:10:23 70° WNW 03:37:06 10° NNE visible
15 May 7.7 19:39:10 10° SSE 20:31:16 26° E 22:25:32 10° NE visible
